{"data":{"norad_id":67678,"intl_designator":"2026-023E","name":"COSMOS 2604","alt_names":[],"object_type":"PAYLOAD","status":"ACTIVE","operator":null,"country":"CIS","launch_date":"2026-02-05","launch_site_code":"PLMSC","launch_vehicle":null,"mission":null,"orbit_class":"UNKNOWN","rcs_meters":null,"size_class":null,"mass_kg":null,"dimensions":null,"purposes":[],"wikipedia_slug":null,"has_3d_model":false,"image_url":null,"decayed_at":null,"tle_current":{"epoch":"2026-09-19T09:19:03.941184Z","epoch_age_seconds":185921,"freshness":"STALE","line1":"1 67678U 26023E   26262.38824006  .00005797  00000+0  21999-3 0  9996","line2":"2 67678  96.6116 313.0955 0019033 147.8863 212.3542 15.26998051 34376","mean_motion":15.26998051,"eccentricity":0.0019033,"inclination_deg":96.6116,"raan_deg":313.0955,"arg_perigee_deg":147.8863,"mean_anomaly_deg":212.3542,"bstar":0.00021999,"rev_number":3437,"period_min":94.30267439156,"perigee_km":471.73000092313,"apogee_km":497.85442726951,"semimajor_km":6862.9292140963,"source":"CELESTRAK","updated_at":"2026-09-21T09:00:16.777262Z"}}}